Location: Eferding
(48.3167°N, 14.0167°E)
Time: 21:47:50
(UTC+00:00)

H-2A R/B - Pass Details

Date: 12 November 2019
Orbit: 733 x 838 km, 98.3° (Epoch: 10 December)

Event Time Altitude Azimuth Distance (km) Brightness Sun altitude
Exits shadow 17:21:43 15° 30° (NNE) 2,094 3.9 -18.7°
Drops below altitude 10° 17:23:16 10° 15° (NNE) 2,435 4.4 -18.9°
Sets 17:26:16 0° 358° (N) 3,358 5.3 -19.4°
